User: anonymous   Login
Location: *
(2.5500°S, 65.9667°W)
Time: 02:06:06
(UTC+00:00)
Language:

Cosmos 724 - Orbit

View from above orbital plane
View from above orbital plane
View from above satellite
View from above satellite

Ground track
Ground track

The orbit data is extracted from the following two-line orbital elements,

1 07727U 75025A   22021.43738576 -.00000063  00000-0  17061-4 0  9991
2 07727  65.5896 273.4135 0050677 151.4829 208.9033 13.98937029390787
Epoch (UTC): 21 January 2022 10:29:50
Eccentricity: 0.0050677
inclination: 65.5896°
perigee height: 860 km
apogee height: 934 km
right ascension of ascending node: 273.4135°
argument of perigee: 151.4829°
revolutions per day: 13.98937029
mean anomaly at epoch: 208.9033°
orbit number at epoch: 39078

The dashed part of the orbit path shows where the satellite is in the earth's shadow,  

DLR